Home   Weather   Hat Yai   Past weeks

Flag for Thailand Past Weather in Hat Yai, Thailand — Yesterday and Last 2 Weeks

Now
79 °F

Light rain. Partly cloudy.


Feels Like: 83 °F
Forecast: 77 / 85 °F
Wind: No wind

Location: Hat Yai Airport

Current Time: Dec 4, 2016 at 9:22:19 pm

Latest Report: Dec 4, 2016 at 8:30 pm


Visibility: N/A

Pressure: 29.80 "Hg

Humidity: 94%

Dew Point: 77 °F

Location of Hat YaiLocation

Past Weather in Hat Yai — Graph

°F

Hat Yai Temperature Yesterday

Maximum temperature yesterday: 77 °F (at 10:00 am)
Minimum temperature yesterday: 75 °F (at 12:00 am)
Average temperature yesterday: 76 °F

High & Low Weather Summary for the Past Weeks

 TemperatureHumidityPressure
High91 °F (Nov 21, 1:00 pm)100% (Nov 19, 8:00 pm)29.95 "Hg (Nov 19, 8:00 pm)
Low73 °F (Dec 1, 9:30 am)56% (Nov 28, 1:00 pm)29.65 "Hg (Nov 21, 3:30 pm)
Average80 °F92%29.80 "Hg
* Reported Nov 19 8:00 pm — Dec 4 8:00 pm, Hat Yai, Weather by CustomWeather, © 2016

Note: Actual official high and low records may vary slightly from our data, if they occured in-between our weather recording intervals... More about our weather records

Advertising

Hat Yai Weather History for the Previous 24 Hours

Scroll right to see more
 ConditionsComfort  
Time TempWeatherWind HumidityBarometerVisibility
8:00 pm
Sun, Dec 4
79 °FPartly cloudy.No wind94%29.80 "HgN/A
7:30 pm81 °FPartly cloudy.3 mph84%29.80 "HgN/A
7:00 pm81 °FLight rain. Partly cloudy.No wind84%29.77 "HgN/A
6:30 pm81 °FPassing clouds.5 mph84%29.77 "HgN/A
6:00 pm81 °FPassing clouds.7 mph84%29.74 "HgN/A
5:30 pm82 °FScattered clouds.7 mph74%29.74 "HgN/A
5:00 pm82 °FScattered clouds.9 mph79%29.74 "HgN/A
4:30 pm82 °FScattered clouds.9 mph79%29.74 "HgN/A
4:00 pm84 °FPartly sunny.8 mph79%29.71 "HgN/A
3:30 pm84 °FPartly sunny.8 mph74%29.71 "HgN/A
3:00 pm84 °FPartly sunny.8 mph74%29.74 "HgN/A
2:30 pm84 °FPartly sunny.8 mph74%29.74 "HgN/A
2:00 pm84 °FBroken clouds.9 mph79%29.74 "HgN/A
1:30 pm84 °FBroken clouds.9 mph74%29.77 "HgN/A
1:00 pm84 °FBroken clouds.8 mph74%29.77 "HgN/A
12:00 pm82 °FBroken clouds.6 mph79%29.80 "HgN/A
11:30 am82 °FBroken clouds.5 mph79%29.83 "HgN/A
11:00 am82 °FBroken clouds.7 mph79%29.83 "HgN/A
10:30 am81 °FBroken clouds.5 mph84%29.83 "HgN/A
9:30 am79 °FMore clouds than sun.2 mph89%29.86 "HgN/A
9:00 am79 °FBroken clouds.2 mph89%29.86 "HgN/A
8:30 am77 °FBroken clouds.2 mph94%29.86 "HgN/A
8:00 am77 °FBroken clouds.No wind89%29.83 "HgN/A
7:30 am77 °FLight rain. Broken clouds.3 mph89%29.83 "HgN/A
7:00 am77 °FBroken clouds.No wind89%29.80 "HgN/A
6:30 am77 °FBroken clouds.7 mph89%29.80 "HgN/A
6:00 am77 °FLight rain. Overcast.No wind94%29.80 "HgN/A
5:30 am77 °FLight rain. Overcast.No wind94%29.77 "HgN/A
5:00 am75 °FLight rain. Overcast.No wind100%29.77 "HgN/A
4:30 am75 °FLight rain. Overcast.2 mph100%29.77 "HgN/A
4:00 am75 °FLight rain. Overcast.2 mph100%29.77 "HgN/A
3:30 am75 °FLight rain. Partly cloudy.No wind100%29.77 "HgN/A
3:00 am75 °FLight rain. Partly cloudy.3 mph100%29.80 "HgN/A
2:30 am75 °FLight rain. Partly cloudy.3 mph100%29.80 "HgN/A
2:00 am75 °FLight rain. Partly cloudy.5 mph100%29.80 "HgN/A
1:30 am75 °FLight rain. Partly cloudy.5 mph100%29.80 "HgN/A
1:00 am75 °FLight rain. Partly cloudy.3 mph100%29.83 "HgN/A
12:30 am75 °FLight rain. Partly cloudy.6 mph100%29.83 "HgN/A
12:00 am75 °FLight rain. Partly cloudy.7 mph100%29.83 "HgN/A
11:30 pm
Sat, Dec 3
77 °FPartly cloudy.5 mph94%29.83 "HgN/A
11:00 pm77 °FPartly cloudy.5 mph94%29.83 "HgN/A
10:30 pm77 °FLight rain. Partly cloudy.5 mph94%29.83 "HgN/A
10:00 pm77 °FPartly cloudy.2 mph94%29.83 "HgN/A
9:30 pm77 °FPartly cloudy.6 mph94%29.83 "HgN/A
9:00 pm75 °FPartly cloudy.6 mph100%29.83 "HgN/A
Weather by CustomWeather, © 2016

See weather overviewHow to use our weather pages